This is the latest recevied weather packets stored in our database for station/object KG5TTF. If no packets are shown the sender has not sent any weather packets the latest 10 day(s).
| Time | Temp. | Humidity | Pressure | Rain* | Wind** | Luminosity | Snow |
|---|---|---|---|---|---|---|---|
| 1777539500 | 1.67° C | 96% | 1023.9 hPa | 3.05 mm | - | 0 W/m² | - |
| 1777539196 | 2.22° C | 96% | 1024.2 hPa | 1.78 mm | - | 0 W/m² | - |
| 1777538894 | 2.22° C | 96% | 1024.3 hPa | 1.78 mm | - | 0 W/m² | - |
| 1777538589 | 2.22° C | 96% | 1023.9 hPa | 1.78 mm | - | 0 W/m² | - |
| 1777538284 | 2.22° C | 96% | 1024.1 hPa | 0 mm | - | 0 W/m² | - |
| 1777537980 | 2.22° C | 96% | 1023.9 hPa | 0 mm | - | 0 W/m² | - |
| 1777537676 | 2.22° C | 96% | 1023.9 hPa | 1.27 mm | - | 0 W/m² | - |
| 1777537372 | 2.22° C | 95% | 1024.2 hPa | 1.27 mm | - | 0 W/m² | - |
| 1777537068 | 2.22° C | 95% | 1024.1 hPa | 0 mm | - | 0 W/m² | - |
| 1777536765 | 2.22° C | 95% | 1024.1 hPa | 1.78 mm | - | 0 W/m² | - |
| 1777536462 | 2.22° C | 95% | 1023.9 hPa | 3.05 mm | - | 0 W/m² | - |
| 1777536159 | 2.22° C | 95% | 1024.1 hPa | 1.27 mm | - | 0 W/m² | - |
| 1777535854 | 2.22° C | 95% | 1024.3 hPa | 1.78 mm | - | 0 W/m² | - |
| 1777535552 | 2.22° C | 95% | 1024.3 hPa | 1.78 mm | - | 0 W/m² | - |
| 1777535248 | 2.22° C | 95% | 1024.3 hPa | 0 mm | - | 0 W/m² | - |
| 1777534946 | 2.22° C | 95% | 1024.1 hPa | 1.27 mm | - | 0 W/m² | - |
| 1777534642 | 2.22° C | 95% | 1024.2 hPa | 1.27 mm | - | 0 W/m² | - |
| 1777534340 | 2.22° C | 95% | 1024.3 hPa | 0 mm | - | 0 W/m² | - |
| 1777534037 | 2.22° C | 95% | 1024.2 hPa | 0 mm | - | 0 W/m² | - |
| 1777533735 | 2.22° C | 95% | 1024.3 hPa | 1.78 mm | - | 0 W/m² | - |
| 1777533430 | 1.67° C | 94% | 1024.3 hPa | 3.05 mm | - | 0 W/m² | - |
| 1777533126 | 1.67° C | 94% | 1024.4 hPa | 3.05 mm | - | 0 W/m² | - |
| 1777532824 | 1.67° C | 94% | 1024.6 hPa | 3.05 mm | - | 0 W/m² | - |
| 1777532520 | 1.67° C | 93% | 1024.7 hPa | 3.05 mm | - | 0 W/m² | - |
| 1777532217 | 2.22° C | 93% | 1024.7 hPa | 3.05 mm | - | 0 W/m² | - |
* Rain latest hour (hover to see other rain measurements)
** Current wind speed in m/s (hover to see current wind gust speed)